Time,TemperatureF,DewpointF,PressureIn,WindDirection,WindDirectionDegrees,WindSpeedMPH,WindSpeedGustMPH,Humidity,HourlyPrecipIn,Conditions,Clouds,dailyrainin,SoftwareType,DateUTC
2013-04-09 00:02:00,63.0,62.0,-100.00,SSE,155,6.0,9.0,95,0.00,,,-99.99,,2013-04-09 05:02:00,
2013-04-09 00:12:00,63.0,61.0,-100.00,SSE,155,6.0,7.0,95,0.00,,,-99.99,,2013-04-09 05:12:00,
2013-04-09 00:22:00,63.0,61.0,-100.00,SSE,155,7.0,9.0,95,0.00,,,-99.99,,2013-04-09 05:22:00,
2013-04-09 00:32:00,63.0,61.0,-100.00,SSE,160,9.0,12.0,95,0.10,,,-99.99,,2013-04-09 05:32:00,
2013-04-09 00:42:00,63.0,61.0,-100.00,SSE,160,9.0,12.0,95,0.10,,,-99.99,,2013-04-09 05:42:00,
2013-04-09 00:52:00,63.0,62.0,-100.00,SSE,165,11.0,15.0,95,0.00,,,-99.99,,2013-04-09 05:52:00,
2013-04-09 01:02:00,63.0,62.0,-100.00,SSE,165,11.0,15.0,95,0.00,,,-99.99,,2013-04-09 06:02:00,
2013-04-09 01:12:00,64.0,63.0,-100.00,South,170,10.0,16.0,95,0.00,,,-99.99,,2013-04-09 06:12:00,
2013-04-09 01:22:00,65.0,63.0,-100.00,SSE,165,9.0,16.0,95,0.00,,,-99.99,,2013-04-09 06:22:00,
2013-04-09 01:32:00,66.0,64.0,-100.00,SSE,165,9.0,15.0,95,0.00,,,-99.99,,2013-04-09 06:32:00,
2013-04-09 01:42:00,66.0,64.0,-100.00,SSE,165,9.0,15.0,95,0.00,,,-99.99,,2013-04-09 06:42:00,
2013-04-09 01:52:00,65.0,64.0,-100.00,SSE,150,9.0,13.0,95,0.04,,,-99.99,,2013-04-09 06:52:00,
2013-04-09 02:02:00,65.0,64.0,-100.00,SSE,150,9.0,13.0,95,0.04,,,-99.99,,2013-04-09 07:02:00,
2013-04-09 02:12:00,65.0,64.0,-100.00,SSE,150,9.0,14.0,95,0.00,,,-99.99,,2013-04-09 07:12:00,
2013-04-09 02:22:00,65.0,64.0,-100.00,SE,135,7.0,15.0,95,0.00,,,-99.99,,2013-04-09 07:22:00,
2013-04-09 02:32:00,64.0,63.0,-100.00,SE,145,8.0,11.0,95,0.00,,,-99.99,,2013-04-09 07:32:00,
2013-04-09 02:42:00,64.0,63.0,-100.00,SE,145,8.0,11.0,95,0.00,,,-99.99,,2013-04-09 07:42:00,
2013-04-09 02:52:00,63.0,62.0,-100.00,SSE,165,4.0,9.0,95,0.00,,,-99.99,,2013-04-09 07:52:00,
2013-04-09 03:03:00,63.0,62.0,-100.00,SSE,165,4.0,9.0,95,0.00,,,-99.99,,2013-04-09 08:03:00,
2013-04-09 03:12:00,63.0,62.0,-100.00,SSE,165,4.0,7.0,95,0.00,,,-99.99,,2013-04-09 08:12:00,
2013-04-09 03:22:00,63.0,62.0,-100.00,SE,140,4.0,7.0,95,0.00,,,-99.99,,2013-04-09 08:22:00,
2013-04-09 03:32:00,62.0,61.0,-100.00,SSE,150,3.0,7.0,95,0.00,,,-99.99,,2013-04-09 08:32:00,
2013-04-09 03:42:00,62.0,61.0,-100.00,SSE,150,3.0,7.0,95,0.00,,,-99.99,,2013-04-09 08:42:00,
2013-04-09 03:52:00,61.0,59.0,-100.00,SE,140,2.0,4.0,95,0.00,,,-99.99,,2013-04-09 08:52:00,
2013-04-09 04:02:00,61.0,59.0,-100.00,SE,140,2.0,4.0,95,0.00,,,-99.99,,2013-04-09 09:02:00,
2013-04-09 04:12:00,60.0,58.0,-100.00,ESE,105,4.0,4.0,95,0.00,,,-99.99,,2013-04-09 09:12:00,
2013-04-09 04:22:00,60.0,59.0,-100.00,ESE,120,3.0,4.0,95,0.00,,,-99.99,,2013-04-09 09:22:00,
2013-04-09 04:33:00,60.0,59.0,-100.00,ESE,115,3.0,4.0,95,0.00,,,-99.99,,2013-04-09 09:33:00,
2013-04-09 04:43:00,60.0,59.0,-100.00,ESE,115,3.0,4.0,95,0.00,,,-99.99,,2013-04-09 09:43:00,
2013-04-09 04:52:00,60.0,59.0,-100.00,SE,125,4.0,6.0,95,0.00,,,-99.99,,2013-04-09 09:52:00,
2013-04-09 05:03:00,60.0,59.0,-100.00,SE,125,4.0,6.0,95,0.00,,,-99.99,,2013-04-09 10:03:00,
2013-04-09 05:12:00,59.0,58.0,-100.00,SE,130,2.0,7.0,95,0.00,,,-99.99,,2013-04-09 10:12:00,
2013-04-09 05:23:00,60.0,59.0,-100.00,SE,130,4.0,6.0,95,0.00,,,-99.99,,2013-04-09 10:23:00,
2013-04-09 05:33:00,61.0,59.0,-100.00,ESE,115,4.0,6.0,95,0.00,,,-99.99,,2013-04-09 10:33:00,
2013-04-09 05:42:00,61.0,59.0,-100.00,ESE,115,4.0,6.0,95,0.00,,,-99.99,,2013-04-09 10:42:00,
2013-04-09 05:52:00,61.0,59.0,-100.00,East,100,6.0,6.0,95,0.00,,,-99.99,,2013-04-09 10:52:00,
2013-04-09 06:02:00,61.0,59.0,-100.00,East,100,6.0,6.0,95,0.00,,,-99.99,,2013-04-09 11:02:00,
2013-04-09 06:12:00,60.0,59.0,-100.00,ESE,115,5.0,7.0,95,0.00,,,-99.99,,2013-04-09 11:12:00,
2013-04-09 06:22:00,60.0,58.0,-100.00,ESE,120,6.0,9.0,95,0.00,,,-99.99,,2013-04-09 11:22:00,
2013-04-09 06:32:00,60.0,58.0,-100.00,ESE,115,4.0,7.0,95,0.00,,,-99.99,,2013-04-09 11:32:00,
2013-04-09 06:42:00,60.0,58.0,-100.00,ESE,115,4.0,7.0,95,0.00,,,-99.99,,2013-04-09 11:42:00,
2013-04-09 06:52:00,60.0,59.0,-100.00,ESE,120,6.0,7.0,95,0.00,,,-99.99,,2013-04-09 11:52:00,
2013-04-09 07:02:00,60.0,59.0,-100.00,ESE,120,6.0,7.0,95,0.00,,,-99.99,,2013-04-09 12:02:00,
2013-04-09 07:12:00,60.0,58.0,-100.00,SE,125,7.0,9.0,95,0.00,,,-99.99,,2013-04-09 12:12:00,
2013-04-09 07:22:00,60.0,58.0,-100.00,SE,125,6.0,9.0,95,0.00,,,-99.99,,2013-04-09 12:22:00,
2013-04-09 07:32:00,60.0,59.0,-100.00,SE,135,7.0,10.0,95,0.00,,,-99.99,,2013-04-09 12:32:00,
2013-04-09 07:42:00,60.0,59.0,-100.00,SE,135,7.0,10.0,95,0.00,,,-99.99,,2013-04-09 12:42:00,
2013-04-09 07:52:00,60.0,59.0,-100.00,SE,135,7.0,10.0,95,0.00,,,-99.99,,2013-04-09 12:52:00,
2013-04-09 08:02:00,60.0,59.0,-100.00,SE,135,7.0,10.0,95,0.00,,,-99.99,,2013-04-09 13:02:00,
2013-04-09 08:12:00,60.0,59.0,-100.00,SE,145,7.0,12.0,95,0.00,,,-99.99,,2013-04-09 13:12:00,
2013-04-09 08:22:00,60.0,59.0,-100.00,SE,130,6.0,9.0,95,0.20,,,-99.99,,2013-04-09 13:22:00,
2013-04-09 08:32:00,61.0,59.0,-100.00,SE,140,5.0,7.0,95,0.00,,,-99.99,,2013-04-09 13:32:00,
2013-04-09 08:42:00,61.0,59.0,-100.00,SE,140,5.0,7.0,95,0.00,,,-99.99,,2013-04-09 13:42:00,
2013-04-09 08:52:00,61.0,60.0,-100.00,SE,130,5.0,9.0,95,0.00,,,-99.99,,2013-04-09 13:52:00,
2013-04-09 09:03:00,61.0,60.0,-100.00,SE,130,5.0,9.0,95,0.00,,,-99.99,,2013-04-09 14:03:00,
2013-04-09 09:12:00,61.0,60.0,-100.00,SSE,155,4.0,7.0,95,0.00,,,-99.99,,2013-04-09 14:12:00,
2013-04-09 09:22:00,61.0,60.0,-100.00,SSE,150,6.0,9.0,95,0.10,,,-99.99,,2013-04-09 14:22:00,
2013-04-09 09:32:00,61.0,60.0,-100.00,SSE,150,3.0,7.0,95,0.10,,,-99.99,,2013-04-09 14:32:00,
2013-04-09 09:42:00,61.0,60.0,-100.00,SSE,150,3.0,7.0,95,0.10,,,-99.99,,2013-04-09 14:42:00,
2013-04-09 09:52:00,62.0,61.0,-100.00,ESE,110,3.0,4.0,95,0.11,,,-99.99,,2013-04-09 14:52:00,
2013-04-09 10:02:00,62.0,61.0,-100.00,ESE,110,3.0,4.0,95,0.11,,,-99.99,,2013-04-09 15:02:00,
2013-04-09 10:12:00,62.0,61.0,-100.00,ESE,110,3.0,4.0,95,0.11,,,-99.99,,2013-04-09 15:12:00,
2013-04-09 10:22:00,62.0,61.0,-100.00,ESE,110,3.0,4.0,95,0.11,,,-99.99,,2013-04-09 15:22:00,
2013-04-09 10:33:00,62.0,61.0,-100.00,ESE,110,3.0,4.0,95,0.11,,,-99.99,,2013-04-09 15:33:00,
2013-04-09 12:13:00,76.0,67.0,-100.00,SW,225,14.0,24.0,73,0.00,,,-99.99,,2013-04-09 17:13:00,
2013-04-09 12:23:00,76.0,67.0,-100.00,WSW,255,16.0,24.0,73,0.00,,,-99.99,,2013-04-09 17:23:00,
2013-04-09 12:32:00,76.0,66.0,-100.00,West,260,14.0,26.0,71,0.00,,,-99.99,,2013-04-09 17:32:00,
2013-04-09 12:42:00,76.0,66.0,-100.00,West,260,14.0,26.0,71,0.00,,,-99.99,,2013-04-09 17:42:00,
2013-04-09 12:53:00,76.0,66.0,-100.00,West,260,12.0,22.0,71,0.00,,,-99.99,,2013-04-09 17:53:00,
2013-04-09 13:02:00,76.0,66.0,-100.00,West,260,12.0,22.0,71,0.00,,,-99.99,,2013-04-09 18:02:00,
2013-04-09 13:12:00,77.0,66.0,-100.00,SW,225,18.0,22.0,68,0.00,,,-99.99,,2013-04-09 18:12:00,
2013-04-09 13:22:00,77.0,66.0,-100.00,SW,235,17.0,24.0,69,0.00,,,-99.99,,2013-04-09 18:22:00,
2013-04-09 13:33:00,78.0,66.0,-100.00,SW,215,16.0,24.0,66,0.00,,,-99.99,,2013-04-09 18:33:00,
2013-04-09 13:43:00,78.0,66.0,-100.00,SW,215,16.0,24.0,66,0.00,,,-99.99,,2013-04-09 18:43:00,
2013-04-09 13:52:00,78.0,66.0,-100.00,SW,215,16.0,24.0,66,0.00,,,-99.99,,2013-04-09 18:52:00,
2013-04-09 14:02:00,79.0,66.0,-100.00,SW,220,14.0,24.0,66,0.00,,,-99.99,,2013-04-09 19:02:00,
2013-04-09 14:12:00,79.0,66.0,-100.00,SW,220,14.0,24.0,66,0.00,,,-99.99,,2013-04-09 19:12:00,
2013-04-09 14:22:00,79.0,66.0,-100.00,SW,220,14.0,24.0,66,0.00,,,-99.99,,2013-04-09 19:22:00,
2013-04-09 14:32:00,78.0,66.0,-100.00,WSW,255,13.0,18.0,66,0.00,,,-99.99,,2013-04-09 19:32:00,
2013-04-09 14:41:00,78.0,66.0,-100.00,WSW,255,13.0,18.0,66,0.00,,,-99.99,,2013-04-09 19:41:00,
2013-04-09 14:52:00,77.0,65.0,-100.00,WSW,240,14.0,20.0,65,0.00,,,-99.99,,2013-04-09 19:52:00,
2013-04-09 15:02:00,78.0,65.0,-100.00,WSW,240,13.0,21.0,65,0.00,,,-99.99,,2013-04-09 20:02:00,
2013-04-09 15:12:00,78.0,65.0,-100.00,SW,235,9.0,18.0,65,0.00,,,-99.99,,2013-04-09 20:12:00,
2013-04-09 15:22:00,77.0,65.0,-100.00,WSW,240,11.0,17.0,66,0.00,,,-99.99,,2013-04-09 20:22:00,
2013-04-09 15:33:00,77.0,65.0,-100.00,SW,230,11.0,18.0,66,0.00,,,-99.99,,2013-04-09 20:33:00,
2013-04-09 15:42:00,77.0,65.0,-100.00,SW,230,11.0,18.0,66,0.00,,,-99.99,,2013-04-09 20:42:00,
2013-04-09 15:52:00,77.0,66.0,-100.00,SW,220,11.0,15.0,67,0.00,,,-99.99,,2013-04-09 20:52:00,
2013-04-09 16:02:00,77.0,66.0,-100.00,SW,220,11.0,15.0,67,0.00,,,-99.99,,2013-04-09 21:02:00,
2013-04-09 16:13:00,77.0,66.0,-100.00,WSW,245,7.0,14.0,68,0.00,,,-99.99,,2013-04-09 21:13:00,
2013-04-09 16:22:00,77.0,66.0,-100.00,WSW,245,7.0,14.0,68,0.00,,,-99.99,,2013-04-09 21:22:00,
2013-04-09 16:33:00,69.0,67.0,-100.00,NE,40,15.0,21.0,93,0.00,,,-99.99,,2013-04-09 21:33:00,
2013-04-09 16:42:00,69.0,67.0,-100.00,NE,40,15.0,21.0,93,0.00,,,-99.99,,2013-04-09 21:42:00,
2013-04-09 16:52:00,62.0,60.0,-100.00,NE,40,9.0,17.0,95,0.00,,,-99.99,,2013-04-09 21:52:00,
2013-04-09 17:03:00,62.0,60.0,-100.00,NE,40,9.0,17.0,95,0.00,,,-99.99,,2013-04-09 22:03:00,
2013-04-09 17:12:00,61.0,60.0,-100.00,NE,40,11.0,19.0,95,0.00,,,-99.99,,2013-04-09 22:12:00,
2013-04-09 17:23:00,61.0,60.0,-100.00,NE,40,10.0,16.0,95,0.00,,,-99.99,,2013-04-09 22:23:00,
2013-04-09 17:33:00,62.0,60.0,-100.00,NE,45,12.0,15.0,95,0.00,,,-99.99,,2013-04-09 22:33:00,
2013-04-09 17:42:00,62.0,60.0,-100.00,NE,45,12.0,15.0,95,0.00,,,-99.99,,2013-04-09 22:42:00,
2013-04-09 17:52:00,61.0,59.0,-100.00,NE,45,11.0,16.0,95,0.00,,,-99.99,,2013-04-09 22:52:00,
2013-04-09 18:03:00,61.0,59.0,-100.00,NE,45,11.0,16.0,95,0.00,,,-99.99,,2013-04-09 23:03:00,
2013-04-09 18:12:00,60.0,59.0,-100.00,NE,40,9.0,17.0,95,0.00,,,-99.99,,2013-04-09 23:12:00,
2013-04-09 18:22:00,60.0,58.0,-100.00,ENE,60,12.0,17.0,95,0.00,,,-99.99,,2013-04-09 23:22:00,
2013-04-09 18:32:00,58.0,57.0,-100.00,NE,55,12.0,19.0,95,0.00,,,-99.99,,2013-04-09 23:32:00,
2013-04-09 18:42:00,58.0,57.0,-100.00,NE,55,12.0,19.0,95,0.00,,,-99.99,,2013-04-09 23:42:00,
2013-04-09 18:52:00,58.0,57.0,-100.00,NE,35,9.0,14.0,95,0.00,,,-99.99,,2013-04-09 23:52:00,
2013-04-09 19:03:00,58.0,57.0,-100.00,NE,35,9.0,14.0,95,0.00,,,-99.99,,2013-04-10 00:03:00,
2013-04-09 19:12:00,58.0,57.0,-100.00,NE,35,9.0,14.0,95,0.00,,,-99.99,,2013-04-10 00:12:00,
2013-04-09 19:22:00,57.0,56.0,-100.00,ENE,65,9.0,15.0,95,0.00,,,-99.99,,2013-04-10 00:22:00,
2013-04-09 19:32:00,56.0,55.0,-100.00,ENE,65,10.0,15.0,95,0.00,,,-99.99,,2013-04-10 00:32:00,
2013-04-09 19:42:00,56.0,55.0,-100.00,ENE,65,10.0,15.0,95,0.00,,,-99.99,,2013-04-10 00:42:00,
2013-04-09 19:52:00,56.0,54.0,-100.00,ENE,70,12.0,15.0,95,0.00,,,-99.99,,2013-04-10 00:52:00,
2013-04-09 20:02:00,56.0,54.0,-100.00,ENE,70,12.0,15.0,95,0.00,,,-99.99,,2013-04-10 01:02:00,
2013-04-09 20:12:00,56.0,54.0,-100.00,ENE,65,10.0,14.0,95,0.00,,,-99.99,,2013-04-10 01:12:00,
2013-04-09 20:23:00,55.0,54.0,-100.00,NE,55,9.0,14.0,95,0.00,,,-99.99,,2013-04-10 01:23:00,
2013-04-09 20:32:00,54.0,53.0,-100.00,East,80,9.0,12.0,95,0.00,,,-99.99,,2013-04-10 01:32:00,
2013-04-09 20:42:00,54.0,53.0,-100.00,East,80,9.0,12.0,95,0.00,,,-99.99,,2013-04-10 01:42:00,
2013-04-09 20:52:00,54.0,53.0,-100.00,ENE,65,8.0,12.0,95,0.00,,,-99.99,,2013-04-10 01:52:00,
2013-04-09 21:02:00,54.0,53.0,-100.00,ENE,65,8.0,12.0,95,0.00,,,-99.99,,2013-04-10 02:02:00,
2013-04-09 21:12:00,53.0,52.0,-100.00,ENE,70,7.0,12.0,95,0.00,,,-99.99,,2013-04-10 02:12:00,
2013-04-09 21:22:00,53.0,51.0,-100.00,ENE,70,10.0,13.0,95,0.00,,,-99.99,,2013-04-10 02:22:00,
2013-04-09 21:32:00,52.0,51.0,-100.00,NE,50,5.0,12.0,95,0.00,,,-99.99,,2013-04-10 02:32:00,
2013-04-09 21:42:00,52.0,51.0,-100.00,NE,50,5.0,12.0,95,0.00,,,-99.99,,2013-04-10 02:42:00,
2013-04-09 21:52:00,51.0,50.0,-100.00,ENE,75,10.0,16.0,95,0.00,,,-99.99,,2013-04-10 02:52:00,
2013-04-09 22:02:00,51.0,50.0,-100.00,ENE,75,10.0,16.0,95,0.00,,,-99.99,,2013-04-10 03:02:00,
2013-04-09 22:12:00,51.0,50.0,-100.00,East,85,7.0,15.0,95,0.00,,,-99.99,,2013-04-10 03:12:00,
2013-04-09 22:22:00,51.0,49.0,-100.00,ESE,105,12.0,17.0,95,0.07,,,-99.99,,2013-04-10 03:22:00,
2013-04-09 22:33:00,50.0,49.0,-100.00,ESE,105,12.0,16.0,95,0.00,,,-99.99,,2013-04-10 03:33:00,
2013-04-09 22:43:00,50.0,49.0,-100.00,ESE,105,12.0,16.0,95,0.00,,,-99.99,,2013-04-10 03:43:00,
2013-04-09 22:52:00,50.0,48.0,-100.00,East,100,6.0,16.0,95,0.00,,,-99.99,,2013-04-10 03:52:00,
2013-04-09 23:03:00,50.0,48.0,-100.00,East,100,6.0,16.0,95,0.00,,,-99.99,,2013-04-10 04:03:00,
2013-04-09 23:13:00,49.0,48.0,-100.00,East,100,7.0,13.0,95,0.00,,,-99.99,,2013-04-10 04:13:00,
2013-04-09 23:23:00,49.0,48.0,-100.00,East,100,9.0,11.0,95,0.00,,,-99.99,,2013-04-10 04:23:00,
2013-04-09 23:33:00,49.0,48.0,-100.00,ESE,105,9.0,12.0,95,0.00,,,-99.99,,2013-04-10 04:33:00,
2013-04-09 23:42:00,49.0,48.0,-100.00,ESE,105,9.0,12.0,95,0.00,,,-99.99,,2013-04-10 04:42:00,
2013-04-09 23:52:00,49.0,47.0,-100.00,NE,55,9.0,14.0,95,0.00,,,-99.99,,2013-04-10 04:52:00,